Time,TemperatureF,DewpointF,PressureIn,WindDirection,WindDirectionDegrees,WindSpeedMPH,WindSpeedGustMPH,Humidity,HourlyPrecipIn,Conditions,Clouds,dailyrainin,SoftwareType,DateUTC
2013-12-05 00:01:00,53.1,48.4,30.05,NNE,23,0.0,1.1,84,0.00,,,0.00,WUHU216HW,2013-12-05 05:01:00,
2013-12-05 00:02:00,53.1,48.4,30.05,NNE,23,0.0,1.1,84,0.00,,,0.00,WUHU216HW,2013-12-05 05:02:00,
2013-12-05 00:07:00,53.1,48.4,30.04,NNE,23,0.0,0.0,84,0.00,,,0.00,WUHU216HW,2013-12-05 05:07:00,
2013-12-05 00:12:00,52.9,48.3,30.04,NNE,23,0.0,0.0,84,0.00,,,0.00,WUHU216HW,2013-12-05 05:12:00,
2013-12-05 00:17:00,52.9,48.3,30.04,NNE,23,0.0,0.0,84,0.00,,,0.00,WUHU216HW,2013-12-05 05:17:00,
2013-12-05 00:22:00,53.1,48.4,30.04,NNE,23,0.0,0.0,84,0.00,,,0.00,WUHU216HW,2013-12-05 05:22:00,
2013-12-05 00:27:00,53.1,48.4,30.03,NNE,23,0.0,0.0,84,0.00,,,0.00,WUHU216HW,2013-12-05 05:27:00,
2013-12-05 00:32:00,53.1,48.4,30.03,NNE,23,0.0,0.0,84,0.00,,,0.00,WUHU216HW,2013-12-05 05:32:00,
2013-12-05 00:37:00,53.1,48.4,30.03,NNE,23,0.0,0.0,84,0.00,,,0.00,WUHU216HW,2013-12-05 05:37:00,
2013-12-05 00:42:00,53.1,48.4,30.03,NNE,23,0.0,0.0,84,0.00,,,0.00,WUHU216HW,2013-12-05 05:42:00,
2013-12-05 00:48:00,53.1,48.4,30.03,NNE,23,0.0,0.0,84,0.00,,,0.00,WUHU216HW,2013-12-05 05:48:00,
2013-12-05 00:53:00,53.1,48.4,30.04,NNE,23,0.0,0.0,84,0.00,,,0.00,WUHU216HW,2013-12-05 05:53:00,
2013-12-05 00:58:00,53.3,48.6,30.04,NNE,23,0.0,0.0,84,0.00,,,0.00,WUHU216HW,2013-12-05 05:58:00,
2013-12-05 01:03:00,53.1,48.4,30.03,NNE,23,0.0,0.0,84,0.00,,,0.00,WUHU216HW,2013-12-05 06:03:00,
2013-12-05 01:08:00,53.3,48.9,30.03,West,270,0.0,0.0,85,0.00,,,0.00,WUHU216HW,2013-12-05 06:08:00,
2013-12-05 01:13:00,53.3,48.9,30.03,WNW,293,0.0,0.2,85,0.00,,,0.00,WUHU216HW,2013-12-05 06:13:00,
2013-12-05 01:18:00,53.3,48.9,30.03,WNW,293,0.0,0.2,85,0.00,,,0.00,WUHU216HW,2013-12-05 06:18:00,
2013-12-05 01:23:00,53.3,48.9,30.03,SSW,203,0.0,0.0,85,0.00,,,0.00,WUHU216HW,2013-12-05 06:23:00,
2013-12-05 01:28:00,53.3,48.9,30.03,SSW,203,0.0,0.0,85,0.00,,,0.00,WUHU216HW,2013-12-05 06:28:00,
2013-12-05 01:33:00,53.5,49.1,30.04,ESE,113,0.0,0.4,85,0.00,,,0.00,WUHU216HW,2013-12-05 06:33:00,
2013-12-05 01:38:00,53.5,49.1,30.03,NNE,23,0.0,0.4,85,0.00,,,0.00,WUHU216HW,2013-12-05 06:38:00,
2013-12-05 01:44:00,53.5,49.3,30.03,ENE,68,0.2,0.2,86,0.00,,,0.00,WUHU216HW,2013-12-05 06:44:00,
2013-12-05 01:49:00,53.6,49.5,30.02,SW,225,0.0,0.2,86,0.00,,,0.00,WUHU216HW,2013-12-05 06:49:00,
2013-12-05 01:54:00,53.6,49.5,30.03,NNE,23,1.3,1.3,86,0.00,,,0.00,WUHU216HW,2013-12-05 06:54:00,
2013-12-05 01:59:00,53.6,49.5,30.03,SSW,203,0.4,1.3,86,0.00,,,0.00,WUHU216HW,2013-12-05 06:59:00,
2013-12-05 02:04:00,53.6,49.5,30.03,SSW,203,0.0,0.7,86,0.00,,,0.00,WUHU216HW,2013-12-05 07:04:00,
2013-12-05 02:09:00,53.6,49.5,30.03,SW,225,0.2,0.4,86,0.00,,,0.00,WUHU216HW,2013-12-05 07:09:00,
2013-12-05 02:14:00,53.6,49.5,30.03,NNE,23,0.0,0.7,86,0.00,,,0.00,WUHU216HW,2013-12-05 07:14:00,
2013-12-05 02:19:00,53.6,49.5,30.03,NNE,23,0.0,0.7,86,0.00,,,0.00,WUHU216HW,2013-12-05 07:19:00,
2013-12-05 02:24:00,53.6,49.5,30.03,NNE,23,0.0,0.0,86,0.00,,,0.00,WUHU216HW,2013-12-05 07:24:00,
2013-12-05 02:29:00,53.5,49.3,30.03,NNE,23,0.0,0.0,86,0.00,,,0.00,WUHU216HW,2013-12-05 07:29:00,
2013-12-05 02:34:00,53.5,49.3,30.03,NNE,23,0.0,0.0,86,0.00,,,0.00,WUHU216HW,2013-12-05 07:34:00,
2013-12-05 02:39:00,53.5,49.3,30.03,NNE,23,0.0,0.0,86,0.00,,,0.00,WUHU216HW,2013-12-05 07:39:00,
2013-12-05 02:45:00,53.5,49.3,30.03,NNE,23,0.0,0.0,86,0.00,,,0.00,WUHU216HW,2013-12-05 07:45:00,
2013-12-05 02:50:00,53.5,49.3,30.03,NNE,23,0.0,0.0,86,0.00,,,0.00,WUHU216HW,2013-12-05 07:50:00,
2013-12-05 02:55:00,53.3,49.1,30.03,NNE,23,0.0,0.0,86,0.00,,,0.00,WUHU216HW,2013-12-05 07:55:00,
2013-12-05 03:00:00,53.3,49.1,30.03,NNE,23,0.0,0.0,86,0.00,,,0.00,WUHU216HW,2013-12-05 08:00:00,
2013-12-05 03:05:00,53.3,49.1,30.02,NNE,23,0.0,0.0,86,0.00,,,0.00,WUHU216HW,2013-12-05 08:05:00,
2013-12-05 03:10:00,53.3,49.1,30.02,North,0,0.0,0.0,86,0.00,,,0.00,WUHU216HW,2013-12-05 08:10:00,
2013-12-05 03:15:00,53.3,49.1,30.02,North,0,0.0,0.0,86,0.00,,,0.00,WUHU216HW,2013-12-05 08:15:00,
2013-12-05 03:20:00,53.3,49.1,30.01,North,0,0.0,0.0,86,0.00,,,0.00,WUHU216HW,2013-12-05 08:20:00,
2013-12-05 03:25:00,53.3,49.1,30.01,NNW,338,0.0,0.0,86,0.00,,,0.00,WUHU216HW,2013-12-05 08:25:00,
2013-12-05 03:30:00,53.3,49.1,30.01,NNW,338,0.0,0.0,86,0.00,,,0.00,WUHU216HW,2013-12-05 08:30:00,
2013-12-05 03:35:00,53.3,49.1,30.02,NNW,338,0.0,0.0,86,0.00,,,0.00,WUHU216HW,2013-12-05 08:35:00,
2013-12-05 03:40:00,53.3,49.1,30.02,NNW,338,0.0,0.0,86,0.00,,,0.00,WUHU216HW,2013-12-05 08:40:00,
2013-12-05 03:41:00,53.3,49.1,30.02,NNW,338,0.0,0.0,86,0.00,,,0.00,WUHU216HW,2013-12-05 08:41:00,
2013-12-05 03:46:00,53.3,49.1,30.02,NNW,338,0.0,0.0,86,0.00,,,0.00,WUHU216HW,2013-12-05 08:46:00,
2013-12-05 03:51:00,53.3,49.1,30.02,NNW,338,0.0,0.0,86,0.00,,,0.00,WUHU216HW,2013-12-05 08:51:00,
2013-12-05 03:56:00,53.3,49.1,30.02,NNW,338,0.0,0.0,86,0.00,,,0.00,WUHU216HW,2013-12-05 08:56:00,
2013-12-05 04:01:00,53.3,49.1,30.02,NNW,338,0.0,0.0,86,0.00,,,0.00,WUHU216HW,2013-12-05 09:01:00,
2013-12-05 04:06:00,53.3,49.1,30.02,NNW,338,0.0,0.0,86,0.00,,,0.00,WUHU216HW,2013-12-05 09:06:00,
2013-12-05 04:11:00,53.5,49.3,30.02,NNW,338,0.0,0.0,86,0.00,,,0.00,WUHU216HW,2013-12-05 09:11:00,
2013-12-05 04:16:00,53.5,49.3,30.02,NNW,338,0.0,0.0,86,0.00,,,0.00,WUHU216HW,2013-12-05 09:16:00,
2013-12-05 04:21:00,53.5,49.7,30.02,NNW,338,0.0,0.0,87,0.00,,,0.00,WUHU216HW,2013-12-05 09:21:00,
2013-12-05 04:26:00,53.5,49.7,30.02,NNW,338,0.0,0.0,87,0.00,,,0.00,WUHU216HW,2013-12-05 09:26:00,
2013-12-05 04:31:00,53.5,49.3,30.02,NNW,338,0.0,0.0,86,0.00,,,0.00,WUHU216HW,2013-12-05 09:31:00,
2013-12-05 04:36:00,53.3,49.1,30.02,NNW,338,0.0,0.0,86,0.00,,,0.00,WUHU216HW,2013-12-05 09:36:00,
2013-12-05 04:41:00,53.3,49.1,30.02,NNW,338,0.0,0.0,86,0.00,,,0.00,WUHU216HW,2013-12-05 09:41:00,
2013-12-05 04:47:00,53.5,49.3,30.01,NNW,338,0.0,0.0,86,0.00,,,0.00,WUHU216HW,2013-12-05 09:47:00,
2013-12-05 04:52:00,53.5,49.7,30.01,NNW,338,0.0,0.0,87,0.00,,,0.00,WUHU216HW,2013-12-05 09:52:00,
2013-12-05 04:57:00,53.5,49.7,30.01,NNW,338,0.0,0.0,87,0.00,,,0.00,WUHU216HW,2013-12-05 09:57:00,
2013-12-05 05:02:00,53.3,49.5,30.02,North,0,0.9,0.9,87,0.00,,,0.00,WUHU216HW,2013-12-05 10:02:00,
2013-12-05 05:07:00,53.3,49.5,30.02,North,0,0.0,0.9,87,0.00,,,0.00,WUHU216HW,2013-12-05 10:07:00,
2013-12-05 05:12:00,53.3,49.5,30.02,North,0,0.0,0.4,87,0.00,,,0.00,WUHU216HW,2013-12-05 10:12:00,
2013-12-05 05:17:00,53.3,49.5,30.01,North,0,0.0,0.0,87,0.00,,,0.00,WUHU216HW,2013-12-05 10:17:00,
2013-12-05 05:22:00,53.5,49.7,30.01,North,0,0.0,0.0,87,0.00,,,0.00,WUHU216HW,2013-12-05 10:22:00,
2013-12-05 05:27:00,53.5,49.7,30.01,North,0,0.0,0.0,87,0.00,,,0.00,WUHU216HW,2013-12-05 10:27:00,
2013-12-05 05:32:00,53.5,49.7,30.01,North,0,0.0,0.0,87,0.00,,,0.00,WUHU216HW,2013-12-05 10:32:00,
2013-12-05 05:37:00,53.5,49.7,30.01,North,0,0.0,0.0,87,0.00,,,0.00,WUHU216HW,2013-12-05 10:37:00,
2013-12-05 05:42:00,53.5,49.7,30.01,North,0,0.0,0.0,87,0.00,,,0.00,WUHU216HW,2013-12-05 10:42:00,
2013-12-05 05:48:00,53.6,49.9,30.01,NE,45,0.0,0.0,87,0.00,,,0.00,WUHU216HW,2013-12-05 10:48:00,
2013-12-05 05:53:00,53.6,50.1,30.01,NNW,338,0.0,0.0,88,0.00,,,0.00,WUHU216HW,2013-12-05 10:53:00,
2013-12-05 05:58:00,53.8,50.3,30.01,NE,45,0.0,0.0,88,0.00,,,0.00,WUHU216HW,2013-12-05 10:58:00,
2013-12-05 06:03:00,53.8,50.3,30.01,SW,225,0.4,0.4,88,0.00,,,0.00,WUHU216HW,2013-12-05 11:03:00,
2013-12-05 06:08:00,54.0,50.5,30.02,NNE,23,1.8,1.8,88,0.00,,,0.00,WUHU216HW,2013-12-05 11:08:00,
2013-12-05 06:13:00,54.2,50.7,30.02,NE,45,0.4,1.8,88,0.00,,,0.00,WUHU216HW,2013-12-05 11:13:00,
2013-12-05 06:18:00,54.2,50.7,30.01,North,0,0.2,1.8,88,0.00,,,0.00,WUHU216HW,2013-12-05 11:18:00,
2013-12-05 06:23:00,54.4,50.9,30.01,SW,225,0.0,0.9,88,0.00,,,0.00,WUHU216HW,2013-12-05 11:23:00,
2013-12-05 06:28:00,54.4,50.9,30.01,WSW,248,0.0,0.4,88,0.00,,,0.00,WUHU216HW,2013-12-05 11:28:00,
2013-12-05 06:33:00,54.4,50.9,30.01,West,270,0.2,2.7,88,0.00,,,0.00,WUHU216HW,2013-12-05 11:33:00,
2013-12-05 06:38:00,54.4,50.9,30.01,NE,45,0.9,2.7,88,0.00,,,0.00,WUHU216HW,2013-12-05 11:38:00,
2013-12-05 06:43:00,54.4,50.9,30.01,NNE,23,0.2,0.9,88,0.00,,,0.00,WUHU216HW,2013-12-05 11:43:00,
2013-12-05 06:49:00,54.4,50.9,30.02,North,0,1.1,1.1,88,0.00,,,0.00,WUHU216HW,2013-12-05 11:49:00,
2013-12-05 06:54:00,54.4,50.9,30.01,NNE,23,0.9,1.1,88,0.00,,,0.00,WUHU216HW,2013-12-05 11:54:00,
2013-12-05 06:59:00,54.4,50.9,30.02,NNE,23,1.6,1.6,88,0.00,,,0.00,WUHU216HW,2013-12-05 11:59:00,
2013-12-05 07:04:00,54.5,51.0,30.02,North,0,0.0,1.6,88,0.00,,,0.00,WUHU216HW,2013-12-05 12:04:00,
2013-12-05 07:09:00,54.5,51.0,30.02,NE,45,1.8,1.8,88,0.00,,,0.00,WUHU216HW,2013-12-05 12:09:00,
2013-12-05 07:14:00,54.5,51.0,30.02,North,0,1.1,2.5,88,0.00,,,0.00,WUHU216HW,2013-12-05 12:14:00,
2013-12-05 07:19:00,54.5,51.0,30.02,NNE,23,1.3,2.5,88,0.00,,,0.00,WUHU216HW,2013-12-05 12:19:00,
2013-12-05 07:24:00,54.7,51.2,30.02,North,0,1.3,2.5,88,0.00,,,0.00,WUHU216HW,2013-12-05 12:24:00,
2013-12-05 07:29:00,54.7,51.2,30.02,East,90,0.4,2.5,88,0.00,,,0.00,WUHU216HW,2013-12-05 12:29:00,
2013-12-05 07:34:00,54.7,51.2,30.02,NE,45,1.1,4.3,88,0.00,,,0.00,WUHU216HW,2013-12-05 12:34:00,
2013-12-05 07:39:00,54.7,51.2,30.02,ENE,68,1.1,4.3,88,0.00,,,0.00,WUHU216HW,2013-12-05 12:39:00,
2013-12-05 07:45:00,54.9,51.4,30.02,WSW,248,0.4,1.1,88,0.00,,,0.00,WUHU216HW,2013-12-05 12:45:00,
2013-12-05 07:50:00,54.9,51.4,30.02,SW,225,0.4,0.7,88,0.00,,,0.00,WUHU216HW,2013-12-05 12:50:00,
2013-12-05 07:55:00,54.9,51.4,30.02,North,0,3.1,3.8,88,0.00,,,0.00,WUHU216HW,2013-12-05 12:55:00,
2013-12-05 08:00:00,55.1,51.6,30.02,North,0,1.6,3.8,88,0.00,,,0.00,WUHU216HW,2013-12-05 13:00:00,
2013-12-05 08:05:00,55.1,51.6,30.03,WSW,248,0.7,1.6,88,0.00,,,0.00,WUHU216HW,2013-12-05 13:05:00,
2013-12-05 08:10:00,55.1,51.6,30.03,North,0,0.0,1.6,88,0.00,,,0.00,WUHU216HW,2013-12-05 13:10:00,
2013-12-05 08:15:00,55.1,51.6,30.03,ESE,113,0.4,0.4,88,0.00,,,0.00,WUHU216HW,2013-12-05 13:15:00,
2013-12-05 08:20:00,55.3,51.8,30.03,NNW,338,0.0,1.8,88,0.00,,,0.00,WUHU216HW,2013-12-05 13:20:00,
2013-12-05 08:25:00,55.4,51.9,30.02,NNE,23,1.3,1.8,88,0.00,,,0.00,WUHU216HW,2013-12-05 13:25:00,
2013-12-05 08:30:00,55.4,51.9,30.03,NNE,23,0.4,1.3,88,0.00,,,0.00,WUHU216HW,2013-12-05 13:30:00,
2013-12-05 08:35:00,55.8,52.6,30.03,North,0,0.0,1.3,89,0.00,,,0.00,WUHU216HW,2013-12-05 13:35:00,
2013-12-05 08:41:00,55.8,52.6,30.03,North,0,2.7,2.7,89,0.00,,,0.00,WUHU216HW,2013-12-05 13:41:00,
2013-12-05 08:46:00,55.8,52.3,30.03,WSW,248,0.4,2.7,88,0.00,,,0.00,WUHU216HW,2013-12-05 13:46:00,
2013-12-05 08:51:00,56.0,52.5,30.03,ENE,68,1.1,1.1,88,0.00,,,0.00,WUHU216HW,2013-12-05 13:51:00,
2013-12-05 08:56:00,56.2,52.7,30.03,NNE,23,1.8,4.0,88,0.00,,,0.00,WUHU216HW,2013-12-05 13:56:00,
2013-12-05 09:01:00,56.2,52.7,30.03,ENE,68,0.0,4.0,88,0.00,,,0.00,WUHU216HW,2013-12-05 14:01:00,
2013-12-05 09:06:00,56.3,52.8,30.03,NNE,23,1.3,1.8,88,0.00,,,0.00,WUHU216HW,2013-12-05 14:06:00,
2013-12-05 09:11:00,56.3,52.8,30.03,NNW,338,1.1,1.6,88,0.00,,,0.00,WUHU216HW,2013-12-05 14:11:00,
2013-12-05 09:16:00,56.5,53.0,30.03,NE,45,0.4,1.6,88,0.00,,,0.00,WUHU216HW,2013-12-05 14:16:00,
2013-12-05 09:21:00,56.9,53.4,30.03,NNE,23,1.3,1.3,88,0.00,,,0.00,WUHU216HW,2013-12-05 14:21:00,
2013-12-05 09:26:00,57.1,53.6,30.03,WSW,248,0.4,1.3,88,0.00,,,0.00,WUHU216HW,2013-12-05 14:26:00,
2013-12-05 09:31:00,57.2,53.7,30.03,NE,45,0.2,1.3,88,0.00,,,0.00,WUHU216HW,2013-12-05 14:31:00,
2013-12-05 09:36:00,57.4,53.6,30.03,North,0,1.1,1.1,87,0.00,,,0.00,WUHU216HW,2013-12-05 14:36:00,
2013-12-05 09:42:00,57.6,53.7,30.03,NNE,23,2.0,2.0,87,0.00,,,0.00,WUHU216HW,2013-12-05 14:42:00,
2013-12-05 09:47:00,58.0,54.1,30.03,NNE,23,0.4,2.0,87,0.00,,,0.00,WUHU216HW,2013-12-05 14:47:00,
2013-12-05 09:52:00,58.1,54.6,30.03,NNE,23,1.6,2.0,88,0.00,,,0.00,WUHU216HW,2013-12-05 14:52:00,
2013-12-05 09:57:00,58.3,54.5,30.03,ENE,68,0.4,1.6,87,0.00,,,0.00,WUHU216HW,2013-12-05 14:57:00,
2013-12-05 10:02:00,58.7,54.8,30.03,North,0,0.7,4.0,87,0.00,,,0.00,WUHU216HW,2013-12-05 15:02:00,
2013-12-05 10:07:00,58.7,54.8,30.03,NE,45,0.2,4.0,87,0.00,,,0.00,WUHU216HW,2013-12-05 15:07:00,
2013-12-05 10:12:00,58.7,54.8,30.03,ENE,68,4.3,4.3,87,0.00,,,0.00,WUHU216HW,2013-12-05 15:12:00,
2013-12-05 10:17:00,59.0,55.2,30.02,SW,225,0.0,4.3,87,0.00,,,0.00,WUHU216HW,2013-12-05 15:17:00,
2013-12-05 10:22:00,59.0,54.9,30.02,NNE,23,0.2,1.1,86,0.00,,,0.00,WUHU216HW,2013-12-05 15:22:00,
2013-12-05 10:27:00,59.2,55.1,30.02,West,270,1.1,1.1,86,0.00,,,0.00,WUHU216HW,2013-12-05 15:27:00,
2013-12-05 10:32:00,59.4,55.3,30.02,South,180,0.4,1.1,86,0.00,,,0.00,WUHU216HW,2013-12-05 15:32:00,
2013-12-05 10:37:00,59.6,55.5,30.02,WSW,248,2.5,2.5,86,0.00,,,0.00,WUHU216HW,2013-12-05 15:37:00,
2013-12-05 10:42:00,59.8,55.6,30.01,ENE,68,1.6,2.5,86,0.00,,,0.00,WUHU216HW,2013-12-05 15:42:00,
2013-12-05 10:48:00,59.9,55.4,30.01,NW,315,1.8,1.8,85,0.00,,,0.00,WUHU216HW,2013-12-05 15:48:00,
2013-12-05 10:53:00,60.3,55.8,30.01,East,90,4.7,4.7,85,0.00,,,0.00,WUHU216HW,2013-12-05 15:53:00,
2013-12-05 10:58:00,60.5,56.0,30.01,West,270,0.0,4.7,85,0.00,,,0.00,WUHU216HW,2013-12-05 15:58:00,
2013-12-05 11:03:00,60.8,56.3,30.00,North,0,2.5,4.7,85,0.00,,,0.00,WUHU216HW,2013-12-05 16:03:00,
2013-12-05 11:08:00,61.4,56.5,30.00,North,0,0.7,2.5,84,0.00,,,0.00,WUHU216HW,2013-12-05 16:08:00,
2013-12-05 11:13:00,61.9,57.1,30.00,WNW,293,0.2,1.8,84,0.00,,,0.00,WUHU216HW,2013-12-05 16:13:00,
2013-12-05 11:18:00,62.3,57.1,29.99,NE,45,1.3,1.8,83,0.00,,,0.00,WUHU216HW,2013-12-05 16:18:00,
2013-12-05 11:23:00,63.0,57.7,29.99,NNE,23,1.8,2.0,83,0.00,,,0.00,WUHU216HW,2013-12-05 16:23:00,
2013-12-05 11:28:00,63.5,57.6,29.99,North,0,1.6,5.1,81,0.00,,,0.00,WUHU216HW,2013-12-05 16:28:00,
2013-12-05 11:33:00,63.7,57.8,29.99,NW,315,4.5,5.1,81,0.00,,,0.00,WUHU216HW,2013-12-05 16:33:00,
2013-12-05 11:38:00,63.7,57.8,29.98,NE,45,6.7,6.7,81,0.00,,,0.00,WUHU216HW,2013-12-05 16:38:00,
2013-12-05 11:43:00,64.3,58.3,29.98,SW,225,0.2,6.7,81,0.00,,,0.00,WUHU216HW,2013-12-05 16:43:00,
2013-12-05 11:49:00,64.4,58.5,29.97,North,0,2.5,4.0,81,0.00,,,0.00,WUHU216HW,2013-12-05 16:49:00,
2013-12-05 11:54:00,64.6,58.3,29.97,ESE,113,4.7,6.3,80,0.00,,,0.00,WUHU216HW,2013-12-05 16:54:00,
2013-12-05 11:59:00,64.8,58.5,29.96,NNE,23,2.5,6.3,80,0.00,,,0.00,WUHU216HW,2013-12-05 16:59:00,
2013-12-05 12:04:00,65.0,58.7,29.96,ENE,68,1.1,4.7,80,0.00,,,0.00,WUHU216HW,2013-12-05 17:04:00,
2013-12-05 12:09:00,65.2,58.9,29.96,NNE,23,3.4,3.4,80,0.00,,,0.00,WUHU216HW,2013-12-05 17:09:00,
2013-12-05 12:14:00,65.3,58.7,29.96,SE,135,1.6,3.6,79,0.00,,,0.00,WUHU216HW,2013-12-05 17:14:00,
2013-12-05 12:19:00,65.5,58.9,29.96,North,0,6.9,6.9,79,0.00,,,0.00,WUHU216HW,2013-12-05 17:19:00,
2013-12-05 12:24:00,65.3,58.3,29.96,North,0,6.3,6.9,78,0.00,,,0.00,WUHU216HW,2013-12-05 17:24:00,
2013-12-05 12:29:00,65.9,58.9,29.96,NNE,23,3.6,6.9,78,0.00,,,0.00,WUHU216HW,2013-12-05 17:29:00,
2013-12-05 12:34:00,66.1,58.6,29.96,NNE,23,2.7,6.3,77,0.00,,,0.00,WUHU216HW,2013-12-05 17:34:00,
2013-12-05 12:39:00,66.4,59.0,29.95,SW,225,2.0,4.9,77,0.00,,,0.00,WUHU216HW,2013-12-05 17:39:00,
2013-12-05 12:45:00,66.8,59.3,29.95,NNE,23,4.7,4.9,77,0.00,,,0.00,WUHU216HW,2013-12-05 17:45:00,
2013-12-05 12:50:00,67.3,59.5,29.95,NNE,23,5.4,5.4,76,0.00,,,0.00,WUHU216HW,2013-12-05 17:50:00,
2013-12-05 12:55:00,67.5,59.3,29.95,East,90,2.9,7.6,75,0.00,,,0.00,WUHU216HW,2013-12-05 17:55:00,
2013-12-05 13:00:00,67.7,59.5,29.95,ENE,68,3.4,8.5,75,0.00,,,0.00,WUHU216HW,2013-12-05 18:00:00,
2013-12-05 13:05:00,67.9,59.3,29.94,North,0,3.6,8.5,74,0.00,,,0.00,WUHU216HW,2013-12-05 18:05:00,
2013-12-05 13:10:00,68.0,59.5,29.94,NNE,23,6.0,6.0,74,0.00,,,0.00,WUHU216HW,2013-12-05 18:10:00,
2013-12-05 13:15:00,68.0,59.5,29.94,NE,45,3.4,6.0,74,0.00,,,0.00,WUHU216HW,2013-12-05 18:15:00,
2013-12-05 13:20:00,68.0,59.5,29.94,North,0,6.0,6.0,74,0.00,,,0.00,WUHU216HW,2013-12-05 18:20:00,
2013-12-05 13:25:00,68.4,59.8,29.94,North,0,3.6,6.0,74,0.00,,,0.00,WUHU216HW,2013-12-05 18:25:00,
2013-12-05 13:30:00,68.8,59.8,29.94,NNE,23,2.7,6.0,73,0.00,,,0.00,WUHU216HW,2013-12-05 18:30:00,
2013-12-05 13:35:00,69.5,60.0,29.94,NNE,23,13.2,13.2,72,0.00,,,0.00,WUHU216HW,2013-12-05 18:35:00,
2013-12-05 13:40:00,69.7,60.2,29.94,North,0,2.9,13.2,72,0.00,,,0.00,WUHU216HW,2013-12-05 18:40:00,
2013-12-05 13:46:00,69.3,59.5,29.94,North,0,1.1,13.2,71,0.00,,,0.00,WUHU216HW,2013-12-05 18:46:00,
2013-12-05 13:51:00,69.1,59.7,29.93,NNE,23,2.5,6.3,72,0.00,,,0.00,WUHU216HW,2013-12-05 18:51:00,
2013-12-05 13:56:00,69.1,59.7,29.93,NW,315,3.8,3.8,72,0.00,,,0.00,WUHU216HW,2013-12-05 18:56:00,
2013-12-05 14:01:00,68.9,59.5,29.92,WSW,248,3.6,3.8,72,0.00,,,0.00,WUHU216HW,2013-12-05 19:01:00,
2013-12-05 14:06:00,68.8,59.8,29.92,SW,225,1.8,3.8,73,0.00,,,0.00,WUHU216HW,2013-12-05 19:06:00,
2013-12-05 14:11:00,68.4,59.4,29.92,North,0,0.7,7.2,73,0.00,,,0.00,WUHU216HW,2013-12-05 19:11:00,
2013-12-05 14:16:00,68.4,59.4,29.92,North,0,0.7,7.2,73,0.00,,,0.00,WUHU216HW,2013-12-05 19:16:00,
2013-12-05 14:41:00,67.3,59.5,29.92,East,90,2.7,2.7,76,0.00,,,0.00,WUHU216HW,2013-12-05 19:41:00,
2013-12-05 14:46:00,67.3,59.5,29.93,NNE,23,1.1,2.7,76,0.00,,,0.00,WUHU216HW,2013-12-05 19:46:00,
2013-12-05 14:51:00,67.0,59.1,29.93,SE,135,1.8,1.8,76,0.00,,,0.00,WUHU216HW,2013-12-05 19:51:00,
2013-12-05 14:56:00,66.8,59.3,29.93,ENE,68,5.4,5.4,77,0.00,,,0.00,WUHU216HW,2013-12-05 19:56:00,
2013-12-05 15:01:00,66.6,59.1,29.93,NNW,338,3.4,5.4,77,0.00,,,0.00,WUHU216HW,2013-12-05 20:01:00,
2013-12-05 15:06:00,66.6,59.1,29.93,North,0,4.5,4.7,77,0.00,,,0.00,WUHU216HW,2013-12-05 20:06:00,
2013-12-05 15:12:00,66.4,59.0,29.93,NE,45,5.8,5.8,77,0.00,,,0.00,WUHU216HW,2013-12-05 20:12:00,
2013-12-05 15:17:00,66.2,59.2,29.93,NE,45,2.7,5.8,78,0.00,,,0.00,WUHU216HW,2013-12-05 20:17:00,
2013-12-05 15:22:00,65.9,58.9,29.93,North,0,4.0,5.8,78,0.00,,,0.00,WUHU216HW,2013-12-05 20:22:00,
2013-12-05 15:27:00,65.9,58.9,29.93,SW,225,2.9,4.0,78,0.00,,,0.00,WUHU216HW,2013-12-05 20:27:00,
2013-12-05 15:32:00,65.9,59.2,29.93,ESE,113,1.1,4.0,79,0.00,,,0.00,WUHU216HW,2013-12-05 20:32:00,
2013-12-05 15:37:00,65.9,59.2,29.93,NNE,23,4.0,4.0,79,0.00,,,0.00,WUHU216HW,2013-12-05 20:37:00,
2013-12-05 15:42:00,65.7,59.1,29.93,NNW,338,3.4,5.8,79,0.00,,,0.00,WUHU216HW,2013-12-05 20:42:00,
2013-12-05 15:47:00,65.7,59.1,29.93,NE,45,4.7,5.8,79,0.00,,,0.00,WUHU216HW,2013-12-05 20:47:00,
2013-12-05 15:52:00,65.7,59.4,29.93,West,270,5.8,5.8,80,0.00,,,0.00,WUHU216HW,2013-12-05 20:52:00,
2013-12-05 15:57:00,65.7,59.4,29.93,NNE,23,5.1,5.8,80,0.00,,,0.00,WUHU216HW,2013-12-05 20:57:00,
2013-12-05 16:02:00,65.5,59.2,29.93,NE,45,4.5,5.8,80,0.00,,,0.00,WUHU216HW,2013-12-05 21:02:00,
2013-12-05 16:07:00,65.5,59.2,29.93,NW,315,5.4,5.4,80,0.00,,,0.00,WUHU216HW,2013-12-05 21:07:00,
2013-12-05 16:13:00,65.3,59.0,29.93,NNE,23,5.1,5.4,80,0.00,,,0.00,WUHU216HW,2013-12-05 21:13:00,
2013-12-05 16:18:00,65.2,58.9,29.93,North,0,3.6,5.4,80,0.00,,,0.00,WUHU216HW,2013-12-05 21:18:00,
2013-12-05 16:23:00,65.0,58.7,29.93,North,0,2.7,4.9,80,0.00,,,0.00,WUHU216HW,2013-12-05 21:23:00,
2013-12-05 16:28:00,64.8,58.5,29.93,NNW,338,2.2,3.6,80,0.00,,,0.00,WUHU216HW,2013-12-05 21:28:00,
2013-12-05 16:33:00,64.6,58.7,29.93,NNE,23,8.1,8.1,81,0.00,,,0.00,WUHU216HW,2013-12-05 21:33:00,
2013-12-05 16:38:00,64.6,58.7,29.93,NE,45,5.1,8.1,81,0.00,,,0.00,WUHU216HW,2013-12-05 21:38:00,
2013-12-05 16:43:00,64.4,58.5,29.93,WSW,248,1.8,8.1,81,0.00,,,0.00,WUHU216HW,2013-12-05 21:43:00,
2013-12-05 16:48:00,64.3,58.3,29.93,NE,45,2.2,5.1,81,0.00,,,0.00,WUHU216HW,2013-12-05 21:48:00,
2013-12-05 16:53:00,64.3,58.7,29.93,North,0,1.8,2.2,82,0.00,,,0.00,WUHU216HW,2013-12-05 21:53:00,
2013-12-05 16:59:00,64.1,58.2,29.93,West,270,1.1,1.8,81,0.00,,,0.00,WUHU216HW,2013-12-05 21:59:00,
2013-12-05 17:04:00,63.9,58.0,29.93,ESE,113,0.4,1.1,81,0.00,,,0.00,WUHU216HW,2013-12-05 22:04:00,
2013-12-05 17:09:00,63.9,58.0,29.93,ENE,68,4.0,4.0,81,0.00,,,0.00,WUHU216HW,2013-12-05 22:09:00,
2013-12-05 17:14:00,63.9,58.0,29.93,NNE,23,0.9,4.0,81,0.00,,,0.00,WUHU216HW,2013-12-05 22:14:00,
2013-12-05 17:19:00,63.9,58.0,29.93,ENE,68,2.0,2.0,81,0.00,,,0.00,WUHU216HW,2013-12-05 22:19:00,
2013-12-05 17:24:00,63.7,57.8,29.94,ENE,68,3.1,3.1,81,0.00,,,0.00,WUHU216HW,2013-12-05 22:24:00,
2013-12-05 17:29:00,63.7,57.8,29.94,North,0,4.9,4.9,81,0.00,,,0.00,WUHU216HW,2013-12-05 22:29:00,
2013-12-05 17:34:00,63.7,58.2,29.94,North,0,3.8,4.9,82,0.00,,,0.00,WUHU216HW,2013-12-05 22:34:00,
2013-12-05 17:39:00,63.7,58.2,29.94,North,0,2.5,3.8,82,0.00,,,0.00,WUHU216HW,2013-12-05 22:39:00,
2013-12-05 17:44:00,63.7,58.2,29.94,NNW,338,2.5,4.7,82,0.00,,,0.00,WUHU216HW,2013-12-05 22:44:00,
2013-12-05 17:49:00,63.5,58.0,29.94,NE,45,4.5,4.5,82,0.00,,,0.00,WUHU216HW,2013-12-05 22:49:00,
2013-12-05 17:54:00,63.5,58.0,29.94,North,0,4.9,4.9,82,0.00,,,0.00,WUHU216HW,2013-12-05 22:54:00,
2013-12-05 17:59:00,63.5,58.0,29.95,ENE,68,1.1,4.9,82,0.00,,,0.00,WUHU216HW,2013-12-05 22:59:00,
2013-12-05 18:04:00,63.5,58.0,29.94,NE,45,2.5,4.9,82,0.00,,,0.00,WUHU216HW,2013-12-05 23:04:00,
2013-12-05 18:09:00,63.5,58.0,29.94,NNW,338,1.1,4.5,82,0.00,,,0.00,WUHU216HW,2013-12-05 23:09:00,
2013-12-05 18:15:00,63.4,57.8,29.94,NNE,23,4.3,4.5,82,0.00,,,0.00,WUHU216HW,2013-12-05 23:15:00,
2013-12-05 18:20:00,63.4,57.8,29.94,NE,45,2.9,4.3,82,0.00,,,0.00,WUHU216HW,2013-12-05 23:20:00,
2013-12-05 18:25:00,63.4,58.1,29.94,ENE,68,1.8,4.3,83,0.00,,,0.00,WUHU216HW,2013-12-05 23:25:00,
2013-12-05 18:30:00,63.4,58.1,29.94,NE,45,0.9,1.8,83,0.00,,,0.00,WUHU216HW,2013-12-05 23:30:00,
2013-12-05 18:35:00,63.4,58.1,29.94,NE,45,3.1,6.5,83,0.00,,,0.00,WUHU216HW,2013-12-05 23:35:00,
2013-12-05 18:40:00,63.4,58.1,29.94,NNE,23,3.6,6.5,83,0.00,,,0.00,WUHU216HW,2013-12-05 23:40:00,
2013-12-05 18:45:00,63.4,58.1,29.94,NNE,23,3.4,3.6,83,0.00,,,0.00,WUHU216HW,2013-12-05 23:45:00,
2013-12-05 18:50:00,63.4,58.1,29.95,NNE,23,3.4,3.6,83,0.00,,,0.00,WUHU216HW,2013-12-05 23:50:00,
2013-12-05 18:55:00,63.4,58.1,29.94,NW,315,2.0,3.4,83,0.00,,,0.00,WUHU216HW,2013-12-05 23:55:00,
2013-12-05 19:00:00,63.2,57.9,29.94,North,0,6.9,6.9,83,0.00,,,0.00,WUHU216HW,2013-12-06 00:00:00,
2013-12-05 19:05:00,63.2,57.9,29.94,North,0,6.0,6.9,83,0.00,,,0.00,WUHU216HW,2013-12-06 00:05:00,
2013-12-05 19:11:00,63.2,57.9,29.94,North,0,2.7,6.9,83,0.00,,,0.00,WUHU216HW,2013-12-06 00:11:00,
2013-12-05 19:16:00,63.2,57.9,29.94,NNE,23,2.5,4.0,83,0.00,,,0.00,WUHU216HW,2013-12-06 00:16:00,
2013-12-05 19:21:00,63.2,57.9,29.95,East,90,1.8,2.5,83,0.00,,,0.00,WUHU216HW,2013-12-06 00:21:00,
2013-12-05 19:26:00,63.4,58.1,29.94,NNE,23,2.7,2.7,83,0.00,,,0.00,WUHU216HW,2013-12-06 00:26:00,
2013-12-05 19:31:00,63.4,58.1,29.95,North,0,2.5,2.7,83,0.00,,,0.00,WUHU216HW,2013-12-06 00:31:00,
2013-12-05 19:36:00,63.4,58.1,29.94,North,0,1.3,2.5,83,0.00,,,0.00,WUHU216HW,2013-12-06 00:36:00,
2013-12-05 19:41:00,63.4,58.1,29.94,ENE,68,1.3,2.5,83,0.00,,,0.00,WUHU216HW,2013-12-06 00:41:00,
2013-12-05 19:46:00,63.2,57.9,29.95,North,0,4.0,4.0,83,0.00,,,0.00,WUHU216HW,2013-12-06 00:46:00,
2013-12-05 19:51:00,63.2,57.9,29.94,NNW,338,0.4,4.0,83,0.00,,,0.00,WUHU216HW,2013-12-06 00:51:00,
2013-12-05 19:56:00,63.2,57.9,29.94,North,0,4.0,4.0,83,0.00,,,0.00,WUHU216HW,2013-12-06 00:56:00,
2013-12-05 20:01:00,63.2,57.9,29.94,NE,45,1.1,4.0,83,0.00,,,0.00,WUHU216HW,2013-12-06 01:01:00,
2013-12-05 20:07:00,63.2,58.2,29.94,West,270,1.6,3.4,84,0.00,,,0.00,WUHU216HW,2013-12-06 01:07:00,
2013-12-05 20:12:00,63.2,58.2,29.94,NNE,23,4.9,4.9,84,0.00,,,0.00,WUHU216HW,2013-12-06 01:12:00,
2013-12-05 20:17:00,63.2,58.2,29.94,NNE,23,1.3,4.9,84,0.00,,,0.00,WUHU216HW,2013-12-06 01:17:00,
2013-12-05 20:22:00,63.2,58.2,29.94,North,0,1.8,1.8,84,0.00,,,0.00,WUHU216HW,2013-12-06 01:22:00,
2013-12-05 20:27:00,63.2,58.2,29.93,NNE,23,5.1,5.1,84,0.00,,,0.00,WUHU216HW,2013-12-06 01:27:00,
2013-12-05 20:32:00,63.0,58.1,29.93,NE,45,2.9,5.1,84,0.00,,,0.00,WUHU216HW,2013-12-06 01:32:00,
2013-12-05 20:37:00,63.0,58.1,29.92,North,0,1.3,3.4,84,0.00,,,0.00,WUHU216HW,2013-12-06 01:37:00,
2013-12-05 20:42:00,63.0,58.1,29.92,North,0,2.9,2.9,84,0.00,,,0.00,WUHU216HW,2013-12-06 01:42:00,
2013-12-05 20:47:00,63.0,58.1,29.92,North,0,2.9,2.9,84,0.00,,,0.00,WUHU216HW,2013-12-06 01:47:00,
2013-12-05 21:00:00,63.0,58.4,29.93,NE,45,1.3,1.3,85,0.00,,,0.00,WUHU216HW,2013-12-06 02:00:00,
2013-12-05 21:05:00,63.0,58.4,29.93,East,90,1.8,2.7,85,0.00,,,0.00,WUHU216HW,2013-12-06 02:05:00,
2013-12-05 21:10:00,63.0,58.4,29.94,SSW,203,0.0,2.7,85,0.00,,,0.00,WUHU216HW,2013-12-06 02:10:00,
2013-12-05 21:15:00,63.0,58.4,29.93,North,0,1.8,2.5,85,0.00,,,0.00,WUHU216HW,2013-12-06 02:15:00,
2013-12-05 21:20:00,63.0,58.4,29.94,NNE,23,4.5,4.5,85,0.00,,,0.00,WUHU216HW,2013-12-06 02:20:00,
2013-12-05 21:25:00,63.0,58.4,29.94,NE,45,3.4,4.5,85,0.00,,,0.00,WUHU216HW,2013-12-06 02:25:00,
2013-12-05 21:30:00,63.0,58.8,29.93,NNW,338,1.6,4.5,86,0.00,,,0.00,WUHU216HW,2013-12-06 02:30:00,
2013-12-05 21:35:00,63.0,58.8,29.93,NNE,23,1.1,3.4,86,0.00,,,0.00,WUHU216HW,2013-12-06 02:35:00,
2013-12-05 21:41:00,62.8,58.6,29.92,North,0,6.3,6.3,86,0.00,,,0.00,WUHU216HW,2013-12-06 02:41:00,
2013-12-05 21:46:00,62.6,58.4,29.92,North,0,2.5,6.3,86,0.00,,,0.00,WUHU216HW,2013-12-06 02:46:00,
2013-12-05 21:51:00,62.6,58.8,29.91,WSW,248,0.7,6.3,87,0.00,,,0.00,WUHU216HW,2013-12-06 02:51:00,
2013-12-05 21:56:00,62.6,58.8,29.90,NE,45,0.7,2.5,87,0.00,,,0.00,WUHU216HW,2013-12-06 02:56:00,
2013-12-05 22:01:00,62.6,58.8,29.91,ESE,113,0.7,1.1,87,0.00,,,0.00,WUHU216HW,2013-12-06 03:01:00,
2013-12-05 22:06:00,62.6,58.8,29.92,North,0,2.7,2.7,87,0.00,,,0.00,WUHU216HW,2013-12-06 03:06:00,
2013-12-05 22:11:00,62.6,58.8,29.92,NNW,338,3.4,3.4,87,0.00,,,0.00,WUHU216HW,2013-12-06 03:11:00,
2013-12-05 22:16:00,62.8,59.0,29.92,NNE,23,1.6,3.4,87,0.00,,,0.00,WUHU216HW,2013-12-06 03:16:00,
2013-12-05 22:21:00,62.8,59.0,29.92,NNE,23,4.3,4.3,87,0.00,,,0.00,WUHU216HW,2013-12-06 03:21:00,
2013-12-05 22:26:00,63.0,59.1,29.92,NNE,23,3.8,4.3,87,0.00,,,0.00,WUHU216HW,2013-12-06 03:26:00,
2013-12-05 22:31:00,63.0,59.1,29.92,NNE,23,2.5,4.3,87,0.00,,,0.00,WUHU216HW,2013-12-06 03:31:00,
2013-12-05 22:37:00,63.0,59.1,29.92,NNE,23,1.1,3.8,87,0.00,,,0.00,WUHU216HW,2013-12-06 03:37:00,
2013-12-05 22:42:00,63.0,59.1,29.92,NE,45,2.2,2.5,87,0.00,,,0.00,WUHU216HW,2013-12-06 03:42:00,
2013-12-05 22:47:00,63.0,59.1,29.92,NNE,23,0.4,2.2,87,0.00,,,0.00,WUHU216HW,2013-12-06 03:47:00,
2013-12-05 22:52:00,63.0,59.1,29.93,SW,225,0.9,1.8,87,0.00,,,0.00,WUHU216HW,2013-12-06 03:52:00,
2013-12-05 22:57:00,63.0,59.1,29.92,NNE,23,3.4,3.4,87,0.00,,,0.00,WUHU216HW,2013-12-06 03:57:00,
2013-12-05 23:02:00,63.0,59.1,29.92,NW,315,0.7,3.4,87,0.00,,,0.00,WUHU216HW,2013-12-06 04:02:00,
2013-12-05 23:07:00,63.0,59.1,29.93,NNE,23,3.4,3.4,87,0.00,,,0.00,WUHU216HW,2013-12-06 04:07:00,
2013-12-05 23:12:00,63.2,59.3,29.92,North,0,0.2,3.4,87,0.00,,,0.00,WUHU216HW,2013-12-06 04:12:00,
2013-12-05 23:17:00,63.2,59.3,29.92,NW,315,2.0,3.4,87,0.00,,,0.00,WUHU216HW,2013-12-06 04:17:00,
2013-12-05 23:22:00,63.2,59.3,29.92,North,0,0.0,3.4,87,0.00,,,0.00,WUHU216HW,2013-12-06 04:22:00,
2013-12-05 23:27:00,63.2,59.3,29.91,NNE,23,0.4,2.0,87,0.00,,,0.00,WUHU216HW,2013-12-06 04:27:00,
2013-12-05 23:32:00,63.2,59.3,29.91,North,0,2.7,2.7,87,0.00,,,0.00,WUHU216HW,2013-12-06 04:32:00,
2013-12-05 23:38:00,63.2,59.3,29.92,NNE,23,2.9,2.9,87,0.00,,,0.00,WUHU216HW,2013-12-06 04:38:00,
2013-12-05 23:43:00,63.2,59.3,29.92,NW,315,1.1,3.8,87,0.00,,,0.00,WUHU216HW,2013-12-06 04:43:00,
2013-12-05 23:48:00,63.4,59.5,29.92,NNE,23,0.9,3.8,87,0.00,,,0.00,WUHU216HW,2013-12-06 04:48:00,
2013-12-05 23:53:00,63.4,59.8,29.92,NE,45,5.8,5.8,88,0.00,,,0.00,WUHU216HW,2013-12-06 04:53:00,
2013-12-05 23:58:00,63.4,59.8,29.91,North,0,1.1,5.8,88,0.00,,,0.00,WUHU216HW,2013-12-06 04:58:00,